Tracking 28888 objects as of 22-May-2024
HD Live streaming from Space Station
objects crossing your sky now

FLOCK 4Y 13

Track FLOCK 4Y 13 now!
10-day predictions
FLOCK 4Y 13 is classified as:


NORAD ID: 55079
Int'l Code: 2023-001BY
Perigee: 481.8 km
Apogee: 497.2 km
Inclination: 97.4 °
Period: 94.3 minutes
Semi major axis: 6860 km
RCS: Unknown
Launch date: January 3, 2023
Source: United States (US)
Launch site: AIR FORCE EASTERN TEST RANGE (AFETR)
Your satellite tracking list
Your tracking list is empty




NASA's NSSDC Master Catalog

Two Line Element Set (TLE):
1 55079U 23001BY  24142.73328881  .00019027  00000-0  70104-3 0  9999
2 55079  97.4282 204.9032 0011200 259.9524 100.0452 15.27809982 76747
Source of the keplerian elements: AFSPC